Showing default

UITMSAT, 67686

Orbit data source: Space-Track

UITMSAT, 67686 is a payload satellite owned by UiTM (JP) in LEO that was delivered to the ISS. Payload-class satellites include a variety of spacecraft equipped with specific instruments for various scientific and technological missions. These include communications satellites like Starlink; space stations such as the ISS; scientific satellites like the Hubble; Earth observation satellites from companies like Planet Labs, Umbra, and HawkEye 360; GPS; miniature CubeSats for education and research; and military/defense satellites.

Loading next visibility...
Identifier
67686, 1998-067YC
Orbit
LEO
Country
Flag of JPJP / JPN
Related business
Manufacturer
UiTM
Mission
Operational spacecraft
Bus & Motor
CUBESAT 1U, Unknown motor
Mass
1 kg wet, 1 kg dry
Launch date (UTC)
1998-11-20 (28 years ago)
Launch vehicle
H3-24W
Launch site
Tyuratam Missile And Space Complex (TTMTR)
Object type
Payload
Rocket body
Debris
Shape & HBR
BOX, 0.1 m
Radar Cross Section
Medium (>0.1 m² and <1 m²)

Expand to show TLE details & history
Last TLE update: 10 hours ago

TLE from 10 hours ago
0 UITMSAT
1 67686U 98067YC  26248.22225029  .00127002  00000-0  64551-3 0  9995
2 67686  51.6215 242.6595 0008018  85.0005 275.1912 15.80523084 32898
Epoch: 2026-09-05T05:20Z
TLE epoch observation values (Epoch: 2026-09-05T05:20:02.425Z)
Latitude
0.00002°
Longitude
178.31459°
Altitude
329.227 km
Speed
7.713 km/s
True Right ascension
16h 10m 38s
True Declination
0° 00' 00"
Sunlit
Object was in daylight at epoch
Visualization orbit readout
Latitude
Unknown
Longitude
Unknown
Altitude
Unknown
Speed
Unknown
Apparent Right ascension
Unknown
Apparent Declination
Unknown
Sunlit
N/A
Visualization observer readout
Local Sidereal Time
07:11:54
Azimuth
Unknown
Elevation
Unknown
Doppler factor
Unknown
Orbital elements
Apogee altitude
334.856 km
Perigee altitude
324.1 km
Semi-major axis
6,707.615 km
Eccentricity
0.0008
Inclination
51.6215°
RAAN
242.6595°
Arg. of periapsis
85.0005°
True anomaly
275.09969°
Mean anomaly
275.1912°
Eccentric anomaly
275.14545°
Mean motion
3.95085 °/min
Orbital period
91.12 mins
BSTAR
0.00064551
Loading maneuver chart data...
Computing Atmospheric mass density...

Documentation

Showing up to 5 results
|